Location: Boda
(47.1872°N, 9.5454°E)
Time: 07:40:03
(UTC+00:00)

Cosmos 1908 - Pass Details

Date: 14 May 2021
Orbit: 511 x 528 km, 82.5° (Epoch: 16 June)

Event Time Altitude Azimuth Distance (km) Brightness Sun altitude
Rises 01:20:55 0° 349° (N) 2,669 7.6 -18.6°
Reaches altitude 10° 01:23:04 10° 349° (N) 1,777 6.6 -18.4°
Maximum altitude 01:26:58 83° 262° (W) 538 3.1 -18.1°
Enters shadow 01:28:22 38° 179° (S) 811 3.7 -18.0°
